Location: Bas Lanzent
(48.1360°N, 3.5871°W)
Time: 04:51:19
(UTC+00:00)

Cosmos 2369 Rocket - Pass Details

Date: 18 February 2020
Orbit: 827 x 854 km, 71.0° (Epoch: 30 March)

Event Time Altitude Azimuth Distance (km) Brightness Sun altitude
Exits shadow 04:34:44 11° 340° (NNW) 2,440 4.5 -27.6°
Maximum altitude 04:40:10 51° 56° (NE) 1,065 3.0 -26.7°
Drops below altitude 10° 04:45:43 10° 132° (SE) 2,480 5.1 -25.8°
Sets 04:48:14 0° 137° (SE) 3,411 5.8 -25.4°
